This is the latest recevied weather packets stored in our database for station/object IR1CH-3. If no packets are shown the sender has not sent any weather packets the latest 10 day(s).
| Time | Temp. | Humidity | Pressure | Rain* | Wind** | Luminosity | Snow |
|---|---|---|---|---|---|---|---|
| 1778013679 | 15° C | 99% | 1012.9 hPa | - | - | - | - |
| 1778011879 | 15° C | 99% | 1012.9 hPa | - | - | - | - |
| 1778010078 | 14.44° C | 99% | 1012.8 hPa | - | - | - | - |
| 1778008278 | 15° C | 99% | 1012.6 hPa | - | - | - | - |
| 1778006478 | 15° C | 99% | 1012.8 hPa | - | - | - | - |
| 1778004677 | 15.56° C | 99% | 1012.4 hPa | - | - | - | - |
| 1778002877 | 15° C | 99% | 1012.5 hPa | - | - | - | - |
| 1778001077 | 15° C | 98% | 1012.2 hPa | - | - | - | - |
| 1777999276 | 15.56° C | 97% | 1012.3 hPa | - | - | - | - |
| 1777997476 | 15.56° C | 98% | 1012.4 hPa | - | - | - | - |
| 1777995675 | 16.11° C | 96% | 1012.3 hPa | - | - | - | - |
| 1777993875 | 16.11° C | 99% | 1012.5 hPa | - | - | - | - |
| 1777992075 | 15° C | 99% | 1013 hPa | - | - | - | - |
| 1777988475 | 15.56° C | 99% | 1013.2 hPa | - | - | - | - |
| 1777986674 | 15° C | 99% | 1013.1 hPa | - | - | - | - |
| 1777984873 | 15° C | 99% | 1013 hPa | - | - | - | - |
| 1777983073 | 15° C | 99% | 1013.1 hPa | - | - | - | - |
| 1777981273 | 14.44° C | 99% | 1013.1 hPa | - | - | - | - |
| 1777979472 | 15° C | 99% | 1013.2 hPa | - | - | - | - |
| 1777977672 | 15.56° C | 99% | 1013.2 hPa | - | - | - | - |
| 1777975872 | 15.56° C | 99% | 1013.1 hPa | - | - | - | - |
| 1777974071 | 16.11° C | 95% | 1012.7 hPa | - | - | - | - |
| 1777972271 | 16.67° C | 94% | 1012.5 hPa | - | - | - | - |
| 1777970471 | 16.67° C | 98% | 1012.5 hPa | - | - | - | - |
| 1777968670 | 15° C | 99% | 1012.4 hPa | - | - | - | - |
* Rain since midnight (hover to see other rain measurements)
** Current wind speed in m/s (hover to see current wind gust speed)